Location: ???????
(55.7027°N, 37.3832°E)
Time: 11:53:35
(UTC+00:00)

RESURS DK-1 - Pass Details

Date: 14 April 2026
Orbit: 524 x 530 km, 69.9° (Epoch: 10 May)

Event Time Altitude Azimuth Distance (km) Brightness Sun altitude
Exits shadow 20:17:45 25° 254° (WSW) 1,084 3.8 -22.9°
Maximum altitude 20:19:40 46° 314° (NW) 715 3.2 -23.0°
Drops below altitude 10° 20:23:30 10° 29° (NNE) 1,782 5.5 -23.2°
Sets 20:25:45 0° 35° (NE) 2,676 6.3 -23.3°
